CST,Max TemperatureF,Mean TemperatureF,Min TemperatureF,Max Dew PointF,MeanDew PointF,Min DewpointF,Max Humidity, Mean Humidity, Min Humidity, Max Sea Level PressureIn, Mean Sea Level PressureIn, Min Sea Level PressureIn, Max VisibilityMiles, Mean VisibilityMiles, Min VisibilityMiles, Max Wind SpeedMPH, Mean Wind SpeedMPH, Max Gust SpeedMPH,PrecipitationIn, CloudCover, Events, WindDirDegrees
2012-11-1,78,63,51,62,55,52,100,87,44,30.09,30.03,29.99,10,6,1,7,1,,0.00,1,,17
2012-11-2,80,67,54,68,63,53,100,89,62,30.10,30.05,30.01,10,7,0,8,1,,0.01,3,Fog,222
2012-11-3,82,68,54,67,61,54,100,87,54,30.15,30.09,30.05,10,7,0,7,1,,0.01,2,Fog,214
2012-11-4,73,64,55,67,61,55,100,97,78,30.13,30.08,30.04,10,4,0,20,2,30,0.73,4,Fog-Rain-Thunderstorm,24
2012-11-5,71,60,50,63,57,50,100,92,68,30.08,30.01,29.93,10,6,0,9,2,,0.01,5,Fog-Rain-Thunderstorm,50
2012-11-6,62,54,44,55,51,42,100,87,63,30.07,30.01,29.94,10,9,3,15,6,17,0.01,5,,350
2012-11-7,68,54,39,48,42,39,97,74,35,30.17,30.08,30.00,10,10,10,12,2,20,0.00,0,,336
2012-11-8,64,50,35,47,40,34,97,76,39,30.27,30.21,30.17,10,10,10,8,2,,0.01,0,,21
2012-11-9,70,54,37,56,48,36,100,85,55,30.28,30.22,30.19,10,8,1,9,2,,0.01,1,,131
2012-11-10,75,60,46,63,52,45,100,85,51,30.25,30.20,30.16,10,7,0,14,2,21,0.00,5,Fog,119
2012-11-11,78,69,60,65,62,58,97,75,58,30.17,30.13,30.11,10,10,10,23,8,31,0.00,3,,142
2012-11-12,71,60,46,69,56,40,100,84,67,30.36,30.23,30.10,10,9,2,20,9,24,0.21,6,Rain,359
2012-11-13,61,49,37,41,35,28,86,66,33,30.41,30.33,30.27,10,10,10,16,9,23,0.00,0,,9
2012-11-14,64,52,39,42,37,33,93,69,33,30.32,30.27,30.21,10,10,10,10,4,21,0.00,0,,349
2012-11-15,66,50,35,49,42,33,96,78,45,30.29,30.24,30.19,10,10,10,7,2,,0.01,0,,10
2012-11-16,66,52,39,47,43,38,100,78,39,30.30,30.26,30.21,10,9,5,9,3,18,0.00,0,,10
2012-11-17,68,52,37,47,41,35,97,76,39,30.36,30.30,30.26,10,10,10,10,3,,0.01,0,,15
2012-11-18,70,53,36,49,41,35,97,73,39,30.33,30.29,30.24,10,10,10,10,2,,0.00,0,,42
2012-11-19,73,56,39,51,45,37,97,77,42,30.30,30.23,30.17,10,10,10,6,1,,0.01,0,,13
2012-11-20,73,59,45,52,46,42,97,74,32,30.22,30.17,30.11,10,10,10,9,1,,0.00,0,,3
2012-11-21,77,60,42,55,48,41,97,76,36,30.22,30.17,30.13,10,10,10,12,1,,0.00,0,,356
2012-11-22,73,57,41,54,47,39,96,76,39,30.25,30.20,30.17,10,10,9,6,1,,0.01,0,,160
2012-11-23,75,59,43,58,50,43,100,85,46,30.27,30.22,30.16,10,7,0,12,1,17,0.00,6,Fog,332
2012-11-24,60,48,34,42,37,32,97,66,36,30.32,30.24,30.19,10,10,10,12,6,17,0.01,0,,4
2012-11-25,64,47,30,47,38,28,96,77,44,30.22,30.16,30.11,10,10,10,8,1,,0.00,0,,159
2012-11-26,68,54,41,66,56,39,100,95,78,30.16,30.10,30.07,10,9,2,9,2,,0.18,6,Rain,166
2012-11-27,64,58,50,64,59,49,100,97,88,30.30,30.15,30.06,10,7,0,13,4,25,0.35,6,Fog-Rain-Thunderstorm,7
2012-11-28,63,50,36,49,42,34,100,80,39,30.43,30.35,30.30,10,9,4,12,7,,0.00,3,,9
2012-11-29,66,49,32,52,43,30,100,84,58,30.36,30.30,30.25,10,9,2,7,1,,0.01,1,,107
2012-11-30,72,57,42,57,48,41,100,85,49,30.30,30.23,30.19,10,7,0,5,1,,0.01,1,Fog,108